Find Starlink 31732

NORAD ID: 60099 Int'l Des: 2024-117 Owner: SPXS Country: US Constellation: starlink operational
LEOCIRCULAR

Current View

Loading 3D Globe...

About Starlink 31732

Starlink 31732 (NORAD 60099) is a starlink constellation satellite (v2 mini) launched Jun 23, 2024 by SPXS of US. It operates in LEO, CIRCULAR orbit with a mass of 730.00 kg.

About Starlink 31732

Description loading...

Upcoming Passes

Passes for default location (London). Set your location on the main map for personalized predictions.

Altitude History

Loading altitude history...

Two-Line Element Set

1 60099U 24117J 26171.44169333 .00010325 00000-0 35948-3 0 9992
2 60099 53.1604 279.4747 0000559 354.7367 5.3628 15.30267137112620
Epoch: Jun 20, 2026 • Age: 15 hours

Current Status

Altitude 491.2 km
Velocity 7.62 km/s
Sub-Earth Point -47.89°S, 78.01°W
Launch Date Jun 23, 2024
Age 1.9 years
Type internet

Technical Details

Classification Payload
Mass 730.00 kg
Dry Mass 700.00 kg
Total Mass 730.00 kg
Length 0.30 m
Diameter 4.10 m
Span 29.00 m
Shape Box + pan
Manufacturer SPXS
Bus Type Starlink V2M
Phase Status In Orbit
Owner/State SPXS/US

Most Searched